| time (UTC) | temp F | wind direction | speed MPH | gust MPH | rain 1hr in | rain 24hr in | rain mn in | humidity % | barometer mb |
| 20260510191546 | 72 | 327 | 0.0 | 1.0 | 0.00 | 0.00 | 0.00 | 26 | 1017.2 |
| 20260510190049 | 71 | 280 | 1.0 | 8.0 | 0.00 | 0.00 | 0.00 | 28 | 1017.3 |
| 20260510184547 | 72 | 297 | 3.0 | 11.0 | 0.00 | 0.00 | 0.00 | 29 | 1017.4 |
| 20260510183044 | 71 | 284 | 3.0 | 8.0 | 0.00 | 0.00 | 0.00 | 26 | 1017.6 |
| 20260510181603 | 71 | 321 | 4.0 | 13.0 | 0.00 | 0.00 | 0.00 | 28 | 1017.5 |
| 20260510180100 | 71 | 317 | 3.0 | 9.0 | 0.00 | 0.00 | 0.00 | 29 | 1017.6 |
| 20260510174541 | 70 | 302 | 0.0 | 8.0 | 0.00 | 0.00 | 0.00 | 28 | 1017.6 |
| 20260510173041 | 71 | 330 | 3.0 | 10.0 | 0.00 | 0.00 | 0.00 | 29 | 1017.9 |
| 20260510171547 | 70 | 306 | 3.0 | 8.0 | 0.00 | 0.00 | 0.00 | 29 | 1018.1 |
| 20260510170039 | 70 | 303 | 3.0 | 8.0 | 0.00 | 0.00 | 0.00 | 29 | 1018.2 |
| 20260510164541 | 69 | 236 | 2.0 | 9.0 | 0.00 | 0.00 | 0.00 | 28 | 1018.2 |
| 20260510163036 | 69 | 318 | 4.0 | 8.0 | 0.00 | 0.00 | 0.00 | 31 | 1018.1 |
| 20260510161534 | 68 | 331 | 2.0 | 9.0 | 0.00 | 0.00 | 0.00 | 31 | 1017.8 |
| 20260510160038 | 68 | 340 | 2.0 | 9.0 | 0.00 | 0.00 | 0.00 | 31 | 1017.7 |
| 20260510154531 | 67 | 307 | 2.0 | 8.0 | 0.00 | 0.00 | 0.00 | 34 | 1017.8 |
| 20260510153029 | 66 | 65 | 0.0 | 10.0 | 0.00 | 0.00 | 0.00 | 38 | 1017.3 |
| 20260510151536 | 65 | 319 | 3.0 | 10.0 | 0.00 | 0.00 | 0.00 | 38 | 1017.2 |
| 20260510150026 | 64 | 71 | 2.0 | 7.0 | 0.00 | 0.00 | 0.00 | 39 | 1017.1 |
| 20260510144527 | 64 | 15 | 2.0 | 5.0 | 0.00 | 0.00 | 0.00 | 40 | 1017.3 |
| 20260510141521 | 61 | 29 | 0.0 | 2.0 | 0.00 | 0.00 | 0.00 | 46 | 1017.4 |
| 20260510140019 | 60 | 344 | 3.0 | 7.0 | 0.00 | 0.00 | 0.00 | 48 | 1017.3 |
| 20260510134516 | 59 | 327 | 0.0 | 1.0 | 0.00 | 0.00 | 0.00 | 53 | 1017.1 |
| 20260510133014 | 58 | 328 | 0.0 | 1.0 | 0.00 | 0.00 | 0.00 | 55 | 1016.9 |
| 20260510131512 | 58 | 42 | 0.0 | 1.0 | 0.00 | 0.00 | 0.00 | 55 | 1016.7 |
| 20260510130010 | 57 | 348 | 1.0 | 3.0 | 0.00 | 0.00 | 0.00 | 58 | 1016.5 |
| 20260510124514 | 56 | 42 | 0.0 | 1.0 | 0.00 | 0.00 | 0.00 | 58 | 1016.2 |
| 20260510123009 | 54 | 51 | 0.0 | 1.0 | 0.00 | 0.00 | 0.00 | 63 | 1016.2 |
| 20260510121505 | 53 | 258 | 0.0 | 6.0 | 0.00 | 0.00 | 0.00 | 65 | 1016.0 |
| 20260510120011 | 52 | 337 | 0.0 | 1.0 | 0.00 | 0.00 | 0.00 | 66 | 1015.6 |
| 20260510114601 | 52 | 5 | 0.0 | 9.0 | 0.00 | 0.00 | 0.00 | 68 | 1015.2 |
| 20260510113059 | 51 | 5 | 0.0 | 1.0 | 0.00 | 0.00 | 0.00 | 70 | 1015.0 |
| 20260510111605 | 51 | 14 | 0.0 | 0.0 | 0.00 | 0.00 | 0.00 | 71 | 1015.0 |
| 20260510110054 | 51 | 21 | 0.0 | 0.0 | 0.00 | 0.00 | 0.00 | 71 | 1014.6 |
| 20260510104552 | 51 | 21 | 0.0 | 0.0 | 0.00 | 0.00 | 0.00 | 71 | 1014.1 |
| 20260510103052 | 51 | 21 | 0.0 | 0.0 | 0.00 | 0.00 | 0.00 | 72 | 1013.6 |
| 20260510101546 | 51 | 31 | 0.0 | 0.0 | 0.00 | 0.00 | 0.00 | 72 | 1012.9 |
| 20260510100048 | 52 | 32 | 0.0 | 1.0 | 0.00 | 0.00 | 0.00 | 72 | 1012.7 |
| 20260510094550 | 53 | 31 | 0.0 | 0.0 | 0.00 | 0.00 | 0.00 | 72 | 1012.7 |
| 20260510093038 | 53 | 31 | 0.0 | 0.0 | 0.00 | 0.00 | 0.00 | 70 | 1012.6 |
| 20260510091541 | 54 | 31 | 0.0 | 0.0 | 0.00 | 0.00 | 0.00 | 69 | 1012.1 |
| 20260510090035 | 55 | 31 | 0.0 | 0.0 | 0.00 | 0.00 | 0.00 | 68 | 1012.0 |
| 20260510084534 | 56 | 31 | 0.0 | 0.0 | 0.00 | 0.00 | 0.00 | 66 | 1012.1 |
| 20260510083047 | 57 | 31 | 0.0 | 0.0 | 0.00 | 0.00 | 0.00 | 64 | 1012.2 |
| 20260510080026 | 58 | 31 | 0.0 | 0.0 | 0.00 | 0.00 | 0.00 | 62 | 1011.7 |
| 20260510074520 | 58 | 31 | 0.0 | 0.0 | 0.00 | 0.00 | 0.00 | 61 | 1011.7 |
| 20260510073021 | 58 | 32 | 0.0 | 1.0 | 0.00 | 0.00 | 0.00 | 61 | 1011.6 |
| 20260510071517 | 59 | 32 | 0.0 | 1.0 | 0.00 | 0.00 | 0.00 | 60 | 1011.5 |
| 20260510070014 | 59 | 31 | 0.0 | 1.0 | 0.00 | 0.00 | 0.00 | 59 | 1011.4 |
| 20260510064511 | 60 | 35 | 0.0 | 2.0 | 0.00 | 0.00 | 0.00 | 60 | 1011.4 |
| 20260510063009 | 61 | 344 | 0.0 | 1.0 | 0.00 | 0.00 | 0.00 | 63 | 1011.1 |
| 20260510061508 | 62 | 348 | 0.0 | 8.0 | 0.00 | 0.00 | 0.00 | 61 | 1010.7 |
| 20260510060002 | 62 | 328 | 4.0 | 7.0 | 0.00 | 0.00 | 0.00 | 59 | 1010.7 |
| 20260510054502 | 63 | 347 | 3.0 | 8.0 | 0.00 | 0.00 | 0.00 | 59 | 1010.8 |
| 20260510053100 | 63 | 319 | 0.0 | 5.0 | 0.00 | 0.00 | 0.00 | 59 | 1010.6 |
| 20260510051604 | 64 | 310 | 2.0 | 8.0 | 0.00 | 0.00 | 0.00 | 57 | 1010.6 |
| 20260510050054 | 65 | 323 | 0.0 | 4.0 | 0.00 | 0.00 | 0.00 | 53 | 1010.5 |
| 20260510044602 | 65 | 328 | 0.0 | 0.0 | 0.00 | 0.00 | 0.00 | 51 | 1010.2 |
| 20260510043052 | 66 | 338 | 0.0 | 0.0 | 0.00 | 0.00 | 0.00 | 50 | 1010.3 |
| 20260510041549 | 66 | 338 | 0.0 | 1.0 | 0.00 | 0.00 | 0.00 | 49 | 1010.0 |
| 20260510040050 | 66 | 338 | 0.0 | 0.0 | 0.00 | 0.00 | 0.00 | 50 | 1009.7 |
| 20260510034544 | 66 | 338 | 0.0 | 0.0 | 0.00 | 0.00 | 0.00 | 50 | 1009.2 |
| 20260510033044 | 66 | 338 | 0.0 | 0.0 | 0.00 | 0.00 | 0.00 | 49 | 1009.2 |
| 20260510031543 | 66 | 338 | 0.0 | 0.0 | 0.00 | 0.00 | 0.00 | 49 | 1009.1 |
| 20260510030052 | 66 | 339 | 0.0 | 0.0 | 0.00 | 0.00 | 0.00 | 50 | 1009.0 |
| 20260510024542 | 66 | 339 | 0.0 | 0.0 | 0.00 | 0.00 | 0.00 | 49 | 1009.0 |
| 20260510023040 | 66 | 339 | 0.0 | 0.0 | 0.00 | 0.00 | 0.00 | 49 | 1008.9 |
| 20260510021539 | 66 | 339 | 0.0 | 0.0 | 0.00 | 0.00 | 0.00 | 49 | 1008.7 |
| 20260510020036 | 67 | 338 | 0.0 | 0.0 | 0.00 | 0.00 | 0.00 | 49 | 1008.4 |
| 20260510014535 | 68 | 338 | 0.0 | 0.0 | 0.00 | 0.00 | 0.00 | 48 | 1008.1 |
| 20260510013032 | 69 | 338 | 0.0 | 0.0 | 0.00 | 0.00 | 0.00 | 46 | 1007.7 |
| 20260510011531 | 71 | 338 | 0.0 | 0.0 | 0.00 | 0.00 | 0.00 | 43 | 1007.5 |
| 20260510010127 | 72 | 341 | 0.0 | 6.0 | 0.00 | 0.00 | 0.00 | 43 | 1007.2 |
| 20260510004526 | 73 | 207 | 0.0 | 2.0 | 0.00 | 0.00 | 0.00 | 43 | 1006.8 |
| 20260510003035 | 74 | 207 | 0.0 | 3.0 | 0.00 | 0.00 | 0.00 | 42 | 1006.7 |
| 20260510001525 | 75 | 206 | 0.0 | 7.0 | 0.00 | 0.00 | 0.00 | 41 | 1006.5 |
| 20260510000024 | 76 | 227 | 2.0 | 8.0 | 0.00 | 0.00 | 0.00 | 40 | 1006.4 |
| 20260509234531 | 76 | 247 | 0.0 | 7.0 | 0.00 | 0.00 | 0.00 | 39 | 1006.3 |
| 20260509233024 | 76 | 301 | 3.0 | 8.0 | 0.00 | 0.00 | 0.00 | 38 | 1006.2 |
| 20260509231523 | 77 | 277 | 3.0 | 8.0 | 0.00 | 0.00 | 0.00 | 37 | 1006.2 |
| 20260509230023 | 77 | 288 | 4.0 | 10.0 | 0.00 | 0.00 | 0.00 | 39 | 1006.0 |
| 20260509224522 | 77 | 320 | 3.0 | 9.0 | 0.00 | 0.00 | 0.00 | 39 | 1006.0 |
| 20260509223021 | 77 | 260 | 4.0 | 10.0 | 0.00 | 0.00 | 0.00 | 39 | 1006.0 |
| 20260509221521 | 78 | 286 | 5.0 | 13.0 | 0.00 | 0.00 | 0.00 | 37 | 1006.0 |
| 20260509220026 | 78 | 245 | 4.0 | 12.0 | 0.00 | 0.00 | 0.00 | 38 | 1006.1 |
| 20260509214519 | 78 | 304 | 6.0 | 13.0 | 0.00 | 0.00 | 0.00 | 38 | 1006.0 |
| 20260509213018 | 79 | 293 | 5.0 | 13.0 | 0.00 | 0.00 | 0.00 | 35 | 1006.1 |
| 20260509211517 | 78 | 232 | 3.0 | 11.0 | 0.00 | 0.00 | 0.00 | 38 | 1006.0 |
| 20260509210015 | 79 | 288 | 5.0 | 13.0 | 0.00 | 0.00 | 0.00 | 38 | 1006.0 |
| 20260509204514 | 77 | 227 | 3.0 | 10.0 | 0.00 | 0.00 | 0.00 | 41 | 1005.9 |
| 20260509203012 | 77 | 270 | 3.0 | 12.0 | 0.00 | 0.00 | 0.00 | 46 | 1005.9 |
| 20260509201511 | 76 | 217 | 5.0 | 11.0 | 0.00 | 0.00 | 0.00 | 50 | 1006.1 |
| 20260509200011 | 75 | 212 | 5.0 | 11.0 | 0.00 | 0.00 | 0.00 | 52 | 1006.2 |
| 20260509194509 | 75 | 240 | 4.0 | 11.0 | 0.00 | 0.00 | 0.00 | 56 | 1006.2 |
| 20260509193008 | 74 | 273 | 6.0 | 12.0 | 0.00 | 0.00 | 0.00 | 56 | 1006.2 |